Regional Weather Roundup
Issued by NWS

Current Version | Previous Version | Text Only | Print | Product List | Glossary On
Versions: 1 2 3 4 5 6 7 8 9 10 11 12 13 14 15 16 17 18 19 20 21 22 23 24 25 26 27 28 29 30 31 32 33 34 35 36 37 38 39 40 41 42 43 44 45 46 47 48 49 50
000
ASUS43 KTOP 301108
RWRKS

WEATHER ROUNDUP FOR KANSAS
NATIONAL WEATHER SERVICE GOODLAND KS
600 AM CDT SUN AUG 30 2015

NOTE:  "FAIR" INDICATES FEW OR NO CLOUDS BELOW 12,000 FEET WITH NO
SIGNIFICANT WEATHER AND/OR OBSTRUCTIONS TO VISIBILITY.

KSZ001>006-013>018-027>032-041>047-301200-
NORTHWEST KANSAS

CITY           SKY/WX    TMP DP  RH WIND       PRES   REMARKS
GOODLAND       CLEAR     62  49  62 SW14      30.08S
HAYS           CLOUDY    54  46  76 CALM      30.05S VSB 1/4
HILL CITY      CLEAR     57  56  96 W5        30.05F
RUSSELL        FOG       55  55 100 SW3       30.04S VSB 1/4
$$

KSZ061>065-074>080-084>089-301200-
SOUTHWEST KANSAS

CITY           SKY/WX    TMP DP  RH WIND       PRES   REMARKS
DODGE CITY     PTCLDY    52  51  97 S8        30.07F FOG
ELKHART          N/A     67  48  50 SW8         N/A
GARDEN CITY    CLEAR     54  52  93 SW5       30.08S
GREAT BEND     CLOUDY    55  52  88 SW3       30.05S VSB 1/2
LIBERAL        CLEAR     57  48  72 NW5       30.09S
PRATT          FOG       54  52  94 CALM      30.05F VSB 1
$$

KSZ066>073-081>083-090>101-301200-
SOUTHEAST KANSAS

CITY           SKY/WX    TMP DP  RH WIND       PRES   REMARKS
CHANUTE        FOG       67  66  97 N5        29.99F VSB 3/4
COFFEYVILLE    CLEAR     64  64 100 NW3       29.98R
HUTCHINSON     CLEAR     53  51  93 NW5       30.03S FOG
MEDICINE LODGE   N/A     56  56 100 NW3       30.03S
NEWTON         CLOUDY    61  57  88 E3        30.05S VSB 1/4
PARSONS        FOG       63  63 100 CALM      29.99S VSB 1/2
WICHITA INTL   PTCLDY    61  58  90 N5        30.02R
WICHITA JABRA  MOCLDY    59  59 100 N5        30.02R FOG
WICHITA MCCONL CLEAR     61  59  94 N7        30.01S
$$

KSZ007>012-019>026-033>040-048>060-102>105-301200-
NORTHEAST KANSAS

CITY           SKY/WX    TMP DP  RH WIND       PRES   REMARKS
CONCORDIA      FOG       58  58 100 CALM      30.04S VSB 1/4
EMPORIA        FOG       63  62  97 CALM      30.02R VSB 1/2
LAWRENCE       FOG       67  66  97 E3        30.01S VSB 1/2
MANHATTAN      FOG       62  62 100 CALM      30.02S VSB 1/4
MARYSVILLE     FOG      N/A N/A N/A CALM      30.04R VSB 1/2
OLATHE IND     FOG       68  67  96 NE5       30.01F VSB 1/2
OLATHE EXE     CLOUDY    67  67 100 E6        30.00F FOG
SALINA         FOG       62  60  93 NW3       30.04S VSB 1/4
TOPEKA BILLARD CLOUDY    62  61  96 CALM      30.02R
TOPEKA FORBES  CLOUDY    62  59  90 CALM      30.02R FOG
$$



USA.gov is the U.S. government's official web portal to all federal, state and local government web resources and services.